Regional Weather Roundup
Issued by NWS Raleigh/Durham, NC

Home | Current Version | Previous Version | Text Only | Print | Product List | Glossary On
Versions: 1 2 3 4 5 6 7 8 9 10 11 12 13 14 15 16 17 18 19 20 21 22 23 24 25 26 27
000
ASUS42 KRAH 101910
RWRRAH
NORTH CAROLINA WEATHER ROUNDUP
NATIONAL WEATHER SERVICE RALEIGH NC
200 PM EST SAT DEC 10 2016

NOTE: "FAIR" INDICATES FEW OR NO CLOUDS BELOW 12,000 FEET WITH NO
SIGNIFICANT WEATHER AND/OR OBSTRUCTIONS TO VISIBILITY.

NCZ001-053-055-056-065-067-102000-
WESTERN NORTH CAROLINA

CITY           SKY/WX    TMP DP  RH WIND       PRES   REMARKS
ASHEVILLE      SUNNY     39   8  27 N8        30.41F WCI  33
JEFFERSON      SUNNY     31   5  33 W9        30.33F WCI  22
MORGANTON      SUNNY     42   9  26 CALM      30.47F
HICKORY        SUNNY     40  12  32 CALM      30.42F
RUTHERFORDTON  SUNNY     42  14  33 CALM      30.45F
MOUNT AIRY     SUNNY     40  13  32 S7        30.44F
BOONE          SUNNY     32  -4  21 W15       30.34F WCI  21
$$

NCZ021-022-025-041-071-084-088-102000-
CENTRAL NORTH CAROLINA

CITY           SKY/WX    TMP DP  RH WIND       PRES   REMARKS
CHARLOTTE      MOSUNNY   42  13  30 VRB3      30.47F
GREENSBORO     SUNNY     40  10  29 W8        30.43F WCI  34
WINSTON-SALEM  SUNNY     39   9  29 VRB5      30.45F
RALEIGH-DURHAM MOSUNNY   41  10  28 W7        30.47F
FORT BRAGG     SUNNY     43  11  27 W6        30.47F
FAYETTEVILLE   SUNNY     43  14  31 VRB6      30.49F
BURLINGTON     SUNNY     40  12  32 SW7       30.45F
LAURINBURG     SUNNY     44  14  29 NW7       30.50F
$$

NCZ011-015-027-028-043-044-047-080-103-102000-
NORTHEASTERN NORTH CAROLINA

CITY           SKY/WX    TMP DP  RH WIND       PRES   REMARKS
ROCKY MT-WILSO SUNNY     40  16  37 W6        30.47F
GREENVILLE     SUNNY     41  18  38 NW7       30.48F
WASHINGTON     SUNNY     42  16  35 W6        30.48F
ELIZABETH CITY SUNNY     41  18  39 W12G18    30.46F
MANTEO         SUNNY     40  19  42 NW8       30.47S WCI  34
CAPE HATTERAS  SUNNY     43  22  43 NW8       30.46F
$$

NCZ078-087-090-091-093-098-101-102000-
SOUTHEASTERN NORTH CAROLINA

CITY           SKY/WX    TMP DP  RH WIND       PRES   REMARKS
LUMBERTON      SUNNY     43  17  35 NW7       30.49F
GOLDSBORO      SUNNY     42  14  31 NW5       30.47F
KINSTON        SUNNY     43  16  33 NW7       30.49F
KENANSVILLE    SUNNY     41  16  36 NW9       30.50F
NEW BERN       SUNNY     43  17  35 NW8       30.49F
CHERRY POINT   SUNNY     44  19  36 VRB5      30.49F
BEAUFORT       SUNNY     46  19  34 NW7       30.48S
JACKSONVILLE   SUNNY     44  17  33 NW7       30.48F
WILMINGTON     SUNNY     44  18  35 NW8       30.49F
$$





USA.gov is the U.S. government's official web portal to all federal, state and local government web resources and services.